軌道要素
Epoch 2016 May 12.0 TT = JDT 2457520.5
T 2016 May 23.17113 TT Rudenko
q 0.5307963 (2000.0) P Q
n 0.21044502 Peri. 210.65443 -0.27633368 -0.87922001
a 2.7992624 Node 257.84484 +0.94249270 -0.16892138
e 0.8103799 Incl. 23.38999 +0.18800852 -0.44546352
P 4.68
From 154 observations 2016 May 11-2021 Jan. 19, mean residual 1".9.
|